Miscellaneous Local Product
Issued by NWS Hastings, NE

Home | Current Version | Previous Version | Text Only | Print | Product List | Glossary Off
Versions: 1 2 3 4 5 6 7 8 9 10 11 12 13 14 15 16 17 18 19 20 21 22 23 24 25 26 27 28 29 30 31 32 33 34 35 36 37 38 39 40 41 42 43 44 45 46 47 48 49 50

000
AXUS43 KGID 260802
MISGRI

GID CWA HOURLY WEATHER ROUNDUP
NATIONAL WEATHER SERVICE HASTINGS NE
300 AM CDT MON JUN 26 2017

NOTE: "FAIR" INDICATES FEW OR NO CLOUDS BELOW 12,000 FEET WITH NO
SIGNIFICANT WEATHER AND/OR OBSTRUCTIONS TO VISIBILITY.

...SOUTH CENTRAL NEBRASKA...

CITY           SKY/WX    TMP DP  RH WIND       PRES   REMARKS
GRAND ISLAND   CLOUDY    62  52  69 SW14      30.22S
HASTINGS       CLOUDY    59  51  75 SW7       30.24F
KEARNEY        CLOUDY    61  52  72 SW8       30.24S
ORD            MOCLDY    58  49  72 S5        30.19F
YORK           CLOUDY    59  50  72 SW7       30.21R
AURORA         CLOUDY    61  49  65 SW8       30.21S
LEXINGTON      PTCLDY    58  54  86 SW6       30.25S
HOLDREGE       CLEAR     55  53  92 SW5       30.24S
HEBRON         CLOUDY    58  53  81 SW7       30.21F

...NEBRASKA PANHANDLE...

CITY           SKY/WX    TMP DP  RH WIND       PRES   REMARKS
CHADRON        CLEAR     49  41  74 N3        30.23R
ALLIANCE       CLEAR     53  50  89 CALM      30.24R
SCOTTSBLUFF    CLEAR     58  52  80 CALM      30.23S
SIDNEY         CLEAR     56  53  90 SW8       30.26F

...WESTERN AND NORTH CENTRAL NEBRASKA...

CITY           SKY/WX    TMP DP  RH WIND       PRES   REMARKS
VALENTINE      CLEAR     57  40  52 NE9       30.20R
AINSWORTH      CLEAR     58  53  83 NW8       30.19R
ONEILL         CLEAR     58  50  75 SW5       30.17S
BROKEN BOW     CLOUDY    59  52  77 SW7       30.21F
IMPERIAL       CLEAR     57  55  93 SW7       30.24F
NORTH PLATTE   CLEAR     56  54  93 S5        30.23F
MCCOOK         CLOUDY    60  59  96 SW6       30.24F

...EASTERN NEBRASKA...

CITY           SKY/WX    TMP DP  RH WIND       PRES   REMARKS
NORFOLK        CLOUDY    61  47  59 SW12      30.16S
SO SIOUX CITY  LGT RAIN  56  50  80 NE15      30.22R
TEKAMAH        CLOUDY    60  45  57 E5        30.19R
COLUMBUS       PTCLDY    61  50  67 W8        30.18F
ALBION         PTCLDY    60  48  64 SW8       30.18F
OMAHA EPPLEY   MOCLDY    63  49  60 S6        30.17S
OFFUTT AFB     PTCLDY    55  50  83 CALM      30.17S
MILLARD        MOCLDY    62  51  67 CALM      30.16F
LINCOLN        CLOUDY    61  51  70 SW9       30.18F
NEBRASKA CITY  CLEAR     56  53  91 SW10      30.18S
BEATRICE       CLOUDY    58  53  84 CALM      30.20F
FALLS CITY     CLEAR     55  51  86 SW5       30.19S

...NORTHERN KANSAS...

CITY           SKY/WX    TMP DP  RH WIND       PRES   REMARKS
GOODLAND       CLOUDY    57  57 100 S8        30.29S FOG
HILL CITY      CLEAR     57  55  93 SW6       30.26F
NORTON         SUNNY     55  52  88 SW7       30.25S
PHILLIPSBURG   CLEAR     54  54 100 W5        30.25S
SMITH CENTER   PTCLDY    52  50  93 CALM      30.25F
HAYS           CLOUDY    58  56  93 CALM      30.26F
RUSSELL        CLOUDY    59  55  87 SW3       30.24S
CONCORDIA      CLOUDY    57  54  89 CALM      30.23F
SALINA         CLOUDY    62  57  83 SW7       30.23F
TOPEKA         CLOUDY    56  55  97 S3        30.23S



USA.gov is the U.S. government's official web portal to all federal, state and local government web resources and services.